Location: McFarlands Corners
(41.4117°N, 81.3382°W)
Time: 21:33:09
(UTC+00:00)

SR - Pass Details

Date: 22 February 2026
Orbit: 572 x 848 km, 66.7° (Epoch: 8 March)

Event Time Altitude Azimuth Distance (km) Brightness Sun altitude
Rises 16:05:38 0° 342° (NNW) 3,070 ? 34.3°
Reaches altitude 10° 16:08:38 10° 2° (N) 2,206 ? 34.5°
Maximum altitude 16:12:04 18° 45° (NE) 1,777 ? 34.8°
Drops below altitude 10° 16:15:39 10° 87° (E) 2,322 ? 35.1°
Sets 16:18:54 0° 106° (ESE) 3,297 ? 35.4°
